Probability
0 0 0 0 0 0 0 0 1 2 3 2 2 1 2 4 6 6 7 7 6 7 9 11 11 9 8 6 3 1 1 1 2 3 3 2 1 0 1 1 2 3 3 3
0 0 0 0 0 0 0 0 1 2 3 1 1 0 1 3 5 5 5 6 7 8 11 12 12 11 11 7 2 1 1 1 2 2 2 1 0 0 1 2 3 3 3 3
0 0 0 0 0 0 0 0 1 2 2 1 0 0 0 2 3 4 3 5 7 9 11 12 12 13 13 9 3 1 2 3 2 1 0 0 0 0 1 2 3 3 3 3
0 0 0 0 0 0 0 0 1 2 1 0 0 0 0 1 2 3 4 5 6 8 9 10 11 12 13 9 4 2 3 3 2 1 0 0 0 0 0 1 2 3 3 3
0 0 0 0 0 0 0 0 1 1 1 0 0 0 0 0 2 3 5 5 6 6 7 9 10 11 11 7 3 2 3 3 2 1 0 0 0 0 0 0 1 2 3 3
0 0 0 0 0 0 0 0 0 0 0 0 0 0 0 1 2 3 4 6 6 6 7 7 8 9 8 5 3 3 3 3 3 1 0 0 0 0 0 0 0 1 2 3
0 0 0 0 0 0 0 0 0 0 0 0 0 0 0 1 2 3 3 5 6 6 6 5 5 6 5 4 3 3 3 3 3 2 1 0 0 0 0 0 0 0 1 2
0 0 0 0 0 0 0 0 0 0 0 0 0 0 0 0 1 2 2 4 5 5 4 4 4 3 3 3 3 3 3 3 3 3 2 0 0 0 0 0 0 0 1 2
0 0 0 0 0 0 0 0 0 0 0 0 0 0 0 0 0 1 2 3 4 4 4 3 3 2 2 3 3 3 3 3 3 2 1 0 0 0 0 0 0 0 1 2
0 0 0 0 0 0 0 0 0 0 0 0 0 0 0 0 0 1 3 3 4 4 4 3 2 1 1 2 3 3 3 3 2 2 2 1 0 0 0 0 0 0 1 2
0 0 0 0 0 0 0 0 0 0 0 0 0 0 0 0 0 1 2 2 3 4 4 3 2 0 1 2 3 3 3 3 2 2 2 2 1 0 0 0 0 0 0 1
0 0 0 0 0 0 0 0 0 0 0 0 0 0 0 1 1 1 1 1 2 2 2 3 2 1 1 2 3 3 3 3 3 3 3 2 1 0 0 0 0 0 0 0
0 0 0 0 0 0 0 0 0 0 0 0 0 0 0 1 2 2 2 2 1 1 1 2 2 1 0 1 2 3 3 3 3 3 3 2 1 0 0 0 0 0 0 0
0 0 0 0 0 0 0 0 0 0 0 0 0 0 0 0 1 2 3 2 1 1 0 1 1 0 0 1 2 2 3 3 3 3 2 1 0 0 0 0 0 0 0 0
0 0 0 0 0 0 0 0 0 0 0 0 0 0 0 0 0 1 1 1 0 0 0 0 0 0 0 1 1 2 3 3 3 3 2 0 0 0 0 0 0 0 0 0
0 0 0 0 0 0 0 0 0 0 0 0 0 0 0 0 0 0 0 0 0 0 0 0 0 0 0 0 0 1 2 3 3 3 2 1 0 0 0 0 0 0 0 0
0 0 0 0 0 0 0 0 0 0 0 0 0 0 0 0 0 0 0 0 0 0 0 0 0 0 0 0 0 0 1 3 3 3 2 1 0 0 0 0 0 0 0 0
0 0 0 0 0 0 0 0 0 0 0 0 0 0 0 0 0 0 0 0 0 0 0 0 0 0 0 0 0 0 1 2 3 2 1 0 0 0 0 0 0 0 0 0
0 0 0 0 0 0 0 0 0 0 0 0 0 0 0 0 0 0 0 0 0 0 0 0 0 1 1 1 0 0 1 2 2 1 0 0 0 0 0 0 0 0 0 0
0 0 0 0 0 0 0 0 0 0 0 0 0 0 0 0 0 0 0 0 0 0 0 0 0 1 2 1 0 1 1 1 1 0 0 0 0 0 0 0 0 0 0 0
0 0 0 0 0 0 0 0 0 0 0 0 0 0 0 1 1 1 1 1 1 0 0 0 1 2 2 1 1 2 2 1 0 0 0 0 0 0 0 0 0 0 0 0
0 0 0 0 0 0 0 0 0 0 0 0 0 0 1 2 2 2 2 2 2 1 0 0 1 2 3 2 2 2 2 1 0 0 0 0 0 0 0 0 0 0 0 0
0 0 0 0 0 0 0 0 0 0 0 0 0 0 1 2 2 2 3 3 3 2 1 0 1 2 2 1 1 1 1 0 0 0 0 0 0 0 0 0 0 0 0 0
0 0 0 0 0 0 0 0 0 0 0 0 0 0 1 1 1 1 1 2 3 2 1 0 0 1 1 0 0 0 0 0 0 0 0 0 0 0 0 0 0 0 0 0
0 0 0 0 0 0 0 0 0 0 0 0 0 0 0 0 0 0 0 1 1 1 1 0 0 0 0 0 0 0 0 0 0 0 0 0 0 0 0 0 0 0 0 0
0 0 0 0 0 0 0 0 0 0 0 0 0 0 0 0 0 0 0 0 0 1 0 0 0 0 0 0 0 0 0 0 0 0 0 0 0 0 0 0 0 0 0 0
Wind_Speed
3 3 4 7 7 5 3 2 4 5 3 1 3 4 4 4 4 5 6 7 7 7 5 4 4 4 4 3 3 3 3 2 2 2 1 1 0 0 0 0 1 0 0 1
3 5 9 4 4 3 3 2 4 4 2 1 2 4 4 4 6 7 8 8 8 6 5 5 5 5 5 5 4 3 3 3 2 2 1 1 1 0 1 1 1 0 0 1
7 6 4 5 4 4 4 5 5 4 3 2 0 4 3 2 2 3 5 6 7 9 9 8 7 6 5 5 5 4 3 2 2 2 2 2 1 1 1 1 1 1 1 0
5 5 3 3 4 6 5 6 5 3 1 2 0 3 6 3 2 4 5 5 6 7 7 7 8 7 6 6 4 4 3 3 2 3 3 3 2 1 2 1 1 1 1 1
6 4 4 5 6 7 6 2 3 2 2 0 1 2 7 1 4 6 6 7 7 6 7 8 8 7 6 5 4 3 3 3 2 3 3 3 2 1 1 0 0 1 1 1
5 3 5 6 3 5 4 5 5 4 4 1 3 3 7 4 5 4 5 6 6 6 6 6 5 4 4 4 4 4 4 3 2 3 3 3 3 2 1 1 1 0 1 1
3 3 3 3 2 0 4 5 3 4 3 5 2 3 8 5 4 5 5 5 6 6 6 6 6 6 6 5 5 4 4 3 3 3 3 3 3 3 3 3 2 1 1 1
3 5 4 4 6 6 4 8 7 5 4 4 2 5 7 4 2 1 2 3 4 5 6 7 7 7 6 6 5 5 4 3 3 3 3 2 3 2 2 2 2 2 2 2
5 6 3 2 3 7 5 4 5 6 2 1 4 5 6 2 2 2 2 2 2 4 6 6 6 6 6 7 6 6 5 4 4 3 2 2 2 3 2 2 1 1 1 1
5 3 3 1 3 3 4 7 5 5 4 3 4 4 4 3 2 1 1 2 2 2 4 4 4 5 5 5 5 4 5 5 4 3 3 3 3 3 2 2 1 1 1 1
3 3 2 2 2 3 3 3 4 4 4 4 3 7 4 6 5 5 4 3 3 3 4 4 3 3 3 4 4 4 4 3 3 3 3 2 2 2 2 2 2 1 1 1
2 4 1 3 3 1 4 4 6 4 3 4 3 7 2 2 3 3 3 2 2 3 3 3 3 3 3 4 3 3 3 3 3 3 3 2 2 2 2 2 2 2 2 1
3 5 2 5 4 2 2 2 3 4 4 4 4 7 2 3 2 1 2 2 2 2 2 3 3 3 3 3 3 3 3 4 3 3 3 2 2 2 2 2 2 2 2 1
5 4 6 7 6 3 1 2 3 4 4 4 6 6 4 3 1 1 2 2 2 2 2 3 2 2 2 3 3 3 3 3 3 3 3 3 3 3 3 2 2 2 2 1
4 2 3 4 3 1 2 3 4 5 6 6 6 5 6 4 4 3 2 3 3 3 2 2 2 2 2 2 2 2 2 2 3 3 3 3 2 2 2 2 2 1 1 1
3 2 1 2 2 2 2 3 3 3 3 3 2 5 3 1 2 2 2 3 3 2 3 3 2 2 2 3 3 2 2 2 3 3 3 2 2 2 1 1 1 1 0 0
1 3 2 2 2 1 3 3 2 2 1 3 5 5 1 1 3 4 3 3 2 3 3 3 3 3 3 3 4 4 3 3 3 3 2 2 2 2 1 2 2 1 1 0
5 4 3 1 1 4 5 0 1 2 1 1 2 1 4 3 2 2 2 3 2 2 2 3 2 2 2 2 2 3 3 3 3 2 2 2 2 2 1 2 1 1 0 1
4 6 4 3 2 3 2 1 0 1 2 1 1 1 1 3 3 2 1 0 2 2 2 3 3 2 2 2 2 3 2 3 3 3 3 3 3 3 2 2 2 1 1 0
3 4 4 3 3 4 4 4 3 1 3 1 1 3 2 4 1 3 2 2 2 1 1 1 2 2 2 2 3 3 2 3 3 4 4 3 3 3 3 3 2 1 1 1
3 2 2 2 2 4 4 5 2 2 5 2 2 3 4 3 3 3 1 1 1 1 1 1 2 1 2 2 3 3 2 3 3 3 3 3 3 3 3 2 2 1 1 1
2 2 2 2 2 4 4 2 1 4 2 1 2 2 2 1 0 1 1 0 1 1 1 1 1 0 0 2 3 2 3 3 1 1 2 2 2 2 2 2 2 2 2 1
1 2 3 4 4 3 2 1 2 1 0 1 1 1 2 1 1 1 1 1 0 1 1 1 1 1 0 1 2 2 3 1 2 2 2 2 2 1 2 2 2 2 1 1
2 1 2 0 2 3 3 3 3 2 1 1 1 1 2 1 1 1 1 0 1 1 0 0 1 1 1 1 1 3 2 2 2 3 3 2 2 2 1 2 2 2 2 2
3 2 1 1 3 4 4 4 4 3 2 1 1 0 1 2 2 2 1 1 0 0 0 0 1 2 2 2 2 2 2 3 3 3 3 3 2 2 2 2 3 3 4 4
1 1 2 3 3 2 4 4 3 2 1 0 1 2 1 1 2 2 1 1 1 0 0 0 1 1 2 2 2 2 2 3 3 3 3 2 2 2 2 2 1 2 3 4
Wind_Direction
123 102 206 212 193 189 184 201 254 267 252 169 235 254 262 219 190 191 191 187 187 191 185 169 168 161 152 152 151 153 147 155 139 128 134 137 198 286 309 274 240 209 182 159
74 237 229 195 173 183 194 229 263 292 315 157 256 275 258 216 208 203 197 195 191 181 169 173 166 163 168 170 167 168 165 169 170 162 156 161 167 191 231 264 301 277 192 196
186 228 184 164 178 186 224 205 224 243 333 18 44 307 266 250 224 217 207 194 183 183 183 183 177 179 175 179 180 174 175 177 167 141 109 90 68 44 20 346 322 313 290 242
221 240 174 185 207 177 241 223 202 201 111 293 24 285 281 247 237 220 215 195 186 187 183 181 182 182 185 191 182 167 160 168 164 147 148 155 165 187 219 226 250 307 307 261
229 197 175 204 221 179 214 175 152 153 147 335 326 224 281 259 245 239 219 201 192 190 186 186 188 187 184 177 173 161 150 153 152 150 158 162 171 196 212 230 239 301 316 299
237 213 188 202 211 174 154 79 58 55 74 293 239 196 275 246 231 234 214 198 191 185 185 188 184 169 160 156 165 157 150 161 161 156 164 172 177 182 174 214 217 267 313 305
294 276 226 165 135 76 113 99 36 0 10 253 250 207 250 256 240 216 215 203 187 181 181 180 175 173 170 170 174 167 165 180 181 173 183 191 189 184 188 202 205 202 228 253
194 268 228 183 177 181 176 148 161 196 219 269 294 237 254 271 278 193 194 193 179 182 184 183 184 179 177 178 177 178 181 192 193 191 204 203 187 179 192 202 194 195 212 235
183 245 268 197 173 148 146 177 166 136 149 251 273 279 301 351 38 78 109 143 178 194 189 186 180 180 178 181 185 184 188 196 203 205 205 196 189 183 188 197 193 199 223 226
164 227 275 254 85 57 141 144 107 123 157 241 284 272 254 258 252 219 183 198 186 171 169 170 178 182 181 183 178 173 184 197 205 203 201 196 194 190 181 168 190 208 224 207
142 167 303 36 162 180 113 106 111 123 153 163 252 268 233 214 212 201 206 196 180 175 175 172 175 168 163 162 164 175 190 198 206 208 203 193 194 186 172 178 206 204 202 189
141 127 245 267 275 166 144 157 147 155 206 179 196 264 298 211 204 182 180 167 176 169 162 148 142 142 152 161 170 182 196 201 208 204 193 192 191 176 175 196 205 186 183 194
129 112 67 339 342 23 96 142 149 130 127 166 188 260 356 34 55 134 148 155 150 133 131 123 127 145 164 169 173 181 195 203 203 189 183 180 187 187 194 206 203 183 179 182
115 123 168 201 218 196 209 215 180 149 172 206 220 243 302 332 327 319 152 152 141 128 127 138 154 171 180 176 174 179 192 190 181 173 170 177 194 201 204 197 190 186 181 177
96 147 206 238 247 186 229 245 207 195 200 201 228 224 247 240 220 198 157 138 130 136 145 166 181 189 181 171 172 173 179 181 179 168 171 186 186 180 176 176 180 174 178 194
80 147 163 277 246 223 258 274 236 224 223 224 241 258 264 239 128 124 136 145 159 181 195 199 190 184 191 181 177 175 179 182 169 174 186 170 152 157 165 175 161 152 183 185
124 140 135 252 290 9 271 249 200 197 207 180 215 242 171 144 167 166 167 164 194 207 204 198 197 200 205 201 184 186 190 173 161 169 174 159 152 154 159 160 150 170 205 158
145 129 131 159 122 223 240 309 136 151 267 238 237 220 180 193 186 163 150 168 197 210 207 204 201 204 201 181 174 176 162 160 162 164 171 163 161 169 163 149 164 192 214 207
153 139 127 133 175 261 291 340 51 193 270 247 176 138 60 69 54 3 341 175 206 207 211 206 194 193 181 169 165 146 150 160 162 175 185 186 176 175 176 182 194 199 176 195
79 101 117 132 160 222 254 306 303 134 271 309 134 152 127 96 108 264 297 328 327 12 98 167 160 147 158 169 149 150 167 169 193 201 197 192 183 179 188 200 198 199 187 210
50 53 115 154 196 257 289 313 25 147 255 280 181 163 154 168 206 240 280 328 1 53 69 109 121 140 178 165 150 162 188 214 215 197 186 186 188 186 186 185 189 188 181 177
154 140 161 143 179 259 325 26 149 236 277 186 171 169 157 162 115 124 139 101 78 67 55 83 86 61 236 157 149 164 213 229 191 162 177 196 202 198 179 180 193 186 170 175
144 182 178 182 208 259 291 241 266 230 283 267 195 177 139 117 154 153 164 163 145 127 121 125 132 125 299 191 161 194 230 197 173 172 191 197 200 202 185 192 192 188 185 193
324 18 110 338 304 314 327 341 349 2 316 300 163 154 142 159 175 154 147 235 1 65 130 124 128 148 266 254 219 228 233 170 179 192 205 197 190 207 202 199 195 192 202 208
292 352 44 316 310 338 342 343 342 355 13 49 53 74 170 160 176 169 165 182 168 120 293 171 172 199 240 262 263 250 217 175 186 202 209 204 204 204 211 219 216 209 215 207
289 192 181 231 246 238 278 306 336 10 5 31 71 41 21 158 166 145 151 172 148 131 350 181 194 216 252 255 271 256 219 195 193 204 210 204 207 209 205 216 269 257 233 232